"Time","Temp","Dewpoint","Humidity","Pressure","Direction","Speed","Gust","Precip","PrecipRate"
"00:04:34","59.7","53.8","80.9","30.05","102","0","0","0.00","0.00"
"00:09:59","59.5","53.7","81","30.05","102","0","1.2","0.00","0.00"
"00:14:58","59.2","53.4","81","30.05","102","0","0","0.00","0.00"
"00:19:56","58.9","53.2","81.3","30.04","102","0","1","0.00","0.00"
"00:24:59","58.5","53.2","82.5","30.04","102","0","1.2","0.00","0.00"
"00:29:57","58.1","53","83","30.04","102","0","0","0.00","0.00"
"00:34:59","57.8","52.9","83.6","30.04","102","0","0","0.00","0.00"
"00:39:58","57.6","52.9","84.4","30.04","102","0","0","0.00","0.00"
"00:44:56","57.4","52.9","85","30.04","102","0","0","0.00","0.00"
"00:49:59","57.1","52.6","85","30.04","102","0","0","0.00","0.00"
"00:54:58","56.9","52.6","85.5","30.04","102","0","0","0.00","0.00"
"00:59:56","56.8","52.7","86","30.04","102","0","0","0.00","0.00"
"01:04:57","56.7","52.6","86","30.04","102","0","0","0.00","0.00"
"01:09:59","56.7","52.6","86","30.04","102","0","0","0.00","0.00"
"01:14:58","56.7","52.6","86","30.04","102","0","0","0.00","0.00"
"01:19:56","56.4","52.2","85.8","30.04","102","0","0","0.00","0.00"
"01:24:59","56.1","52.1","86.3","30.04","102","0","0","0.00","0.00"
"01:29:57","56","52.2","87","30.04","101","0","0","0.00","0.00"
"01:34:56","56.1","52.3","87","30.04","102","0","0","0.00","0.00"
"01:39:59","56.2","52.3","86.7","30.04","101","0.3","2.3","0.00","0.00"
"01:44:57","56","51.9","86","30.04","101","0","0","0.00","0.00"
"01:49:56","55.8","51.7","86","30.04","101","0","1.2","0.00","0.00"
"01:54:59","55.6","51.8","86.9","30.04","101","0","1.2","0.00","0.00"
"01:59:57","55.4","51.6","87","30.04","101","0.6","2.3","0.00","0.00"
"02:04:58","55.4","51.6","87","30.04","101","0.1","1.2","0.00","0.00"
"02:09:56","55.3","51.5","87","30.04","101","0","0","0.00","0.00"
"02:14:59","55.1","51.3","86.8","30.04","101","0","0","0.00","0.00"
"02:19:57","54.9","51.4","87.9","30.03","101","0","0","0.00","0.00"
"02:24:56","54.7","51.2","88","30.03","101","0","0","0.00","0.00"
"02:29:58","54.6","51.1","88.2","30.03","101","0","0","0.00","0.00"
"02:34:57","54.5","51.3","89","30.03","102","0","0","0.00","0.00"
"02:39:56","54.4","51.2","89","30.03","101","0","0","0.00","0.00"
"02:44:58","54.4","51","88.6","30.03","101","0","0","0.00","0.00"
"02:49:57","54.1","50.7","88.5","30.02","101","0.2","1.2","0.00","0.00"
"02:54:59","54.1","51.1","89.8","30.02","101","0","1.2","0.00","0.00"
"02:59:58","54.3","51.4","90","30.02","101","0","0","0.00","0.00"
"03:04:57","54.4","51.3","89.3","30.02","101","0","0","0.00","0.00"
"03:14:57","54.2","51.1","89.1","30.02","96","0.1","2.3","0.00","0.00"
"03:19:56","54.1","51","89.2","30.02","96","0","0","0.00","0.00"
"03:24:58","53.9","50.7","89","30.02","96","0","0","0.00","0.00"
"03:29:57","53.7","50.5","89","30.02","96","0","0","0.00","0.00"
"03:34:59","53.6","50.5","89.4","30.02","96","0","0","0.00","0.00"
"03:39:58","53.5","50.6","90","30.02","96","0","0","0.00","0.00"
"03:44:56","53.5","50.6","90","30.02","96","0","0","0.00","0.00"
"03:49:59","53.5","50.6","90","30.02","96","0","0","0.00","0.00"
"03:54:57","53.3","50.4","90","30.02","96","0","0","0.00","0.00"
"03:59:59","53.3","50.6","90.8","30.02","96","0","0","0.00","0.00"
"04:04:56","53.4","50.7","90.8","30.02","96","0","0","0.00","0.00"
"04:09:59","53.3","50.4","90","30.02","96","0","0","0.00","0.00"
"04:14:58","53.1","50.2","90","30.02","96","0","0","0.00","0.00"
"04:19:57","53","50.1","90","30.02","96","0","0","0.00","0.00"
"04:24:59","52.8","49.9","90","30.02","96","0","0","0.00","0.00"
"04:29:57","52.6","49.8","90","30.02","96","0","0","0.00","0.00"
"04:34:56","52.5","49.8","90.6","30.01","96","0","0","0.00","0.00"
"04:39:59","52.4","49.8","91","30.01","96","0","0","0.00","0.00"
"04:44:57","52.3","49.8","91","30.01","96","0","0","0.00","0.00"
"04:49:59","52.1","49.7","91.4","30.01","96","0","0","0.00","0.00"
"04:54:58","52.1","49.8","92","30.01","96","0","0","0.00","0.00"
"04:59:56","52.1","49.9","92.1","30.01","96","0","0","0.00","0.00"
"05:04:58","52.3","50.3","92.9","30.01","96","0","0","0.00","0.00"
"05:09:56","52.3","50","92","30.01","96","0","0","0.00","0.00"
"05:14:58","52.3","50","92","30.01","96","0","0","0.00","0.00"
"05:19:57","52.4","50.1","92","30.01","96","0","0","0.00","0.00"
"05:24:59","52.2","49.8","91.5","30.01","96","0","0","0.00","0.00"
"05:29:57","52","49.5","91","30.01","96","0","0","0.00","0.00"
"05:34:56","51.9","49.5","91.6","30.01","96","0","0","0.00","0.00"
"05:39:59","51.9","49.6","92","30.01","96","0","0","0.00","0.00"
"05:44:57","51.8","49.5","92","30.01","96","0","0","0.00","0.00"
"05:49:59","51.7","49.6","92.6","30.01","96","0","0","0.00","0.00"
"05:54:57","51.8","49.8","93","30.01","96","0","0","0.00","0.00"
"05:59:56","51.7","49.6","92.3","30.02","96","0","0","0.00","0.00"
"06:04:57","51.6","49.4","92","30.02","96","0","0","0.00","0.00"
"06:09:56","51.5","49.3","92","30.02","96","0","0","0.00","0.00"
"06:14:59","51.4","49.3","92.4","30.02","96","0","0","0.00","0.00"
"06:19:57","51.4","49.4","93","30.02","96","0","0","0.00","0.00"
"06:24:59","51.4","49.4","93","30.02","96","0","0","0.00","0.00"
"06:29:58","51.4","49.4","93","30.03","96","0","0","0.00","0.00"
"06:34:56","51.5","49.8","93.9","30.03","96","0","0","0.00","0.00"
"06:39:59","51.6","49.7","93.3","30.03","96","0","0","0.00","0.00"
"06:44:57","51.7","49.7","93","30.03","96","0","0","0.00","0.00"
"06:49:56","51.7","49.7","93","30.03","96","0","0","0.00","0.00"
"06:54:58","51.7","49.7","93","30.03","96","0","0","0.00","0.00"
"06:59:56","51.5","49.5","93","30.04","96","0","0","0.00","0.00"
"07:04:54","51.5","49.5","93","30.04","96","0","0","0.00","0.00"
"07:09:56","51.6","49.9","94","30.04","96","0","0","0.00","0.00"
"07:14:59","51.9","50.2","94","30.04","96","0","0","0.00","0.00"
"07:19:57","52.2","50.5","94","30.04","96","0","0","0.00","0.00"
"07:24:59","52.4","50.7","94","30.04","96","0","0","0.00","0.00"
"07:29:56","52.6","50.7","93.5","30.04","96","0","0","0.00","0.00"
"07:34:58","52.7","51","94","30.04","96","0","0","0.00","0.00"
"07:39:57","53","51.3","94","30.04","96","0","0","0.00","0.00"
"07:44:58","53.4","51.7","94","30.05","96","0","0","0.00","0.00"
"07:49:56","53.9","52.2","94","30.05","96","0","0","0.00","0.00"
"07:54:59","54.4","52.5","93.4","30.05","96","0","0","0.00","0.00"
"07:59:57","54.8","52.8","93","30.05","96","0","0","0.00","0.00"
"08:04:58","55.2","53.1","92.6","30.05","96","0","0","0.00","0.00"
"08:09:56","55.8","53.5","92.3","30.05","96","0","0","0.00","0.00"
"08:14:59","56.2","53.8","91.6","30.05","96","0","0","0.00","0.00"
"08:19:57","56.6","53.9","90.8","30.05","96","0","0","0.00","0.00"
"08:21:53","56.9","54","90","30.05","96","0","0","0.00","0.00"
"08:29:57","57.5","53.9","87.6","30.06","63","0","1.2","0.00","0.00"
"08:34:58","57.8","54.1","87.4","30.06","63","0","1.2","0.00","0.00"
"08:39:57","58.1","54.3","87.2","30.06","63","0","0","0.00","0.00"
"08:44:59","58.5","54.5","86.6","30.06","63","0","0","0.00","0.00"
"08:49:57","58.9","54.6","85.5","30.06","63","0","0","0.00","0.00"
"08:54:59","59.3","54.6","84.2","30.06","63","0","0","0.00","0.00"
"08:59:57","59.7","54.5","82.9","30.06","63","0","0","0.00","0.00"
"09:04:58","59.9","54.4","82.1","30.05","63","0","0","0.00","0.00"
"09:09:56","60.2","54.9","82.5","30.05","63","0","0","0.00","0.00"
"09:14:59","60.8","55.6","83","30.05","63","0","0","0.00","0.00"
"09:19:56","61.4","55.6","81.3","30.05","63","0","0","0.00","0.00"
"09:24:58","62","55.6","79.7","30.05","63","0","0","0.00","0.00"
"09:29:56","62.6","56.1","79.4","30.05","63","0","0","0.00","0.00"
"09:34:58","63.2","57","80.2","30.05","63","0","0","0.00","0.00"
"09:39:56","64.1","57","77.7","30.05","63","0","0","0.00","0.00"
"09:44:58","64.5","56.9","76.3","30.05","82","0","1.2","0.00","0.00"
"09:49:56","64.9","57","75.6","30.05","82","0","0","0.00","0.00"
"09:54:58","65.6","57.7","75.7","30.05","84","0","0","0.00","0.00"
"09:59:56","66.4","57.7","73.7","30.05","138","0.4","4","0.00","0.00"
"10:04:57","66.8","57.7","72.4","30.04","138","0.6","2.3","0.00","0.00"
"10:09:58","67","57.5","71.7","30.04","138","1.1","3.5","0.00","0.00"
"10:14:57","67","57.6","71.6","30.04","139","1.2","3.5","0.00","0.00"
"10:19:59","67.3","58.1","72.3","30.04","140","1.5","3.5","0.00","0.00"
"10:24:57","67.7","58.6","72.5","30.04","140","0.4","2.3","0.00","0.00"
"10:29:59","68.2","58.3","70.7","30.04","147","1.3","3.5","0.00","0.00"
"10:34:56","68.4","58.2","69.9","30.04","152","0.5","2.3","0.00","0.00"
"10:39:59","68.9","58.6","69.7","30.04","153","1.2","3.5","0.00","0.00"
"10:44:57","69.3","58.9","69.5","30.04","152","0.3","2.3","0.00","0.00"
"10:49:59","70.2","59.9","70","30.03","156","1.5","3.5","0.00","0.00"
"10:54:57","70.8","59.6","67.6","30.03","145","1.4","5","0.00","0.00"
"10:59:59","71.4","59.7","66.8","30.03","132","1.8","4.6","0.00","0.00"
"11:04:57","71.7","60.4","67.4","30.03","132","1.2","3.5","0.00","0.00"
"11:09:59","72.2","60","65.7","30.03","136","0.6","3","0.00","0.00"
"11:14:58","72.5","59.6","63.9","30.03","139","1.1","4","0.00","0.00"
"11:19:59","72.8","60.5","65.4","30.02","140","0.9","2.3","0.00","0.00"
"11:24:58","73.2","60.6","64.6","30.02","139","1.7","3.5","0.00","0.00"
"11:29:59","73.3","60.4","64.2","30.02","137","2.1","4","0.00","0.00"
"11:34:57","73.4","61.1","65.5","30.02","117","2.2","5","0.00","0.00"
"11:39:56","73.7","61","64.5","30.02","122","2.4","5","0.00","0.00"
"11:44:58","74","60.8","63.5","30.02","121","2.1","5","0.00","0.00"
"11:49:56","74.4","61.8","65","30.01","121","2.1","6","0.00","0.00"
"11:54:58","74.7","61.4","63.2","30.01","113","3","6","0.00","0.00"
"11:59:56","74.9","61.4","63.1","30.01","111","3.3","5","0.00","0.00"
"12:04:57","74.8","61.5","63.2","30.00","93","3.7","6","0.00","0.00"
"12:09:59","75.1","62.3","64.3","30.00","147","2.2","5","0.00","0.00"
"12:14:57","75.6","62.1","62.7","30.00","111","3.1","8","0.00","0.00"
"12:19:59","75.9","61.8","61.7","29.99","114","3.5","8.1","0.00","0.00"
"12:24:57","76.3","62.4","62.2","29.99","173","3.2","6","0.00","0.00"
"12:29:59","76.7","62.7","62.1","29.99","130","1.8","5","0.00","0.00"
"12:34:57","77.1","62.3","60.4","29.98","198","2.8","7","0.00","0.00"
"12:39:56","77.5","62.3","59.5","29.98","169","2.7","7","0.00","0.00"
"12:44:57","77.9","62.8","59.9","29.98","131","1.8","5","0.00","0.00"
"12:49:59","78.3","62.9","59.2","29.97","167","2.7","6","0.00","0.00"
"12:54:57","78.8","62.9","58.2","29.97","138","1.7","5","0.00","0.00"
"12:59:56","79.3","63.2","57.9","29.97","152","2.1","5","0.00","0.00"
"13:04:58","79.8","62.7","56.1","29.96","170","2.4","5","0.00","0.00"
"13:09:57","80.2","63.2","56.3","29.96","187","3.8","7","0.00","0.00"
"13:14:57","80.4","63","55.4","29.96","136","4.7","11","0.00","0.00"
"13:19:56","80.3","63","55.5","29.95","173","4.4","10.4","0.00","0.00"
"13:24:59","80.5","63.3","56","29.95","131","4.8","12","0.00","0.00"
"13:29:58","80.7","63.2","55.4","29.95","134","3.7","11.5","0.00","0.00"
"13:34:56","80.9","63.2","55.1","29.94","174","4","10","0.00","0.00"
"13:39:56","81.4","63.1","53.9","29.94","194","5.3","10.4","0.00","0.00"
"13:44:59","81.7","63.2","53.4","29.94","192","4.6","11.5","0.00","0.00"
"13:49:58","82.3","63.7","53.5","29.93","133","3.1","9.2","0.00","0.00"
"13:54:57","82.9","63.9","52.7","29.93","176","4.6","10.4","0.00","0.00"
"13:59:56","83.6","64.5","52.7","29.93","204","5.2","10.4","0.00","0.00"
"14:04:54","84","64","51","29.91","196","4.5","9.2","0.00","0.00"
"14:09:57","84.3","64.1","50.9","29.91","158","4.5","12","0.00","0.00"
"14:14:56","84.6","61.5","45.9","29.91","191","6.2","12","0.00","0.00"
"14:19:59","84.8","61.8","46.1","29.91","181","5.6","13","0.00","0.00"
"14:24:58","85.1","61.6","45.3","29.91","183","5.9","12.7","0.00","0.00"
"14:29:56","85.3","60","42.7","29.91","191","8.2","17","0.00","0.00"
"14:34:59","85.1","59.2","41.6","29.89","201","6.6","17.3","0.00","0.00"
"14:39:58","85.1","60.1","43","29.89","195","6.8","15","0.00","0.00"
"14:44:57","85.1","60.2","43.1","29.89","162","6.6","15","0.00","0.00"
"14:49:59","85.2","59.3","41.7","29.88","195","8.6","20","0.00","0.00"
"14:54:58","85.2","58.1","40","29.88","193","8.2","19.6","0.00","0.00"
"14:59:57","85.2","58.8","41.1","29.88","198","8.4","18","0.00","0.00"
"15:04:55","85.2","59.2","41.5","29.88","199","9.2","18.4","0.00","0.00"
"15:09:57","85","58.2","40.2","29.88","215","9.7","18.4","0.00","0.00"
"15:14:57","85","59.1","41.6","29.88","214","9.5","17.3","0.00","0.00"
"15:19:56","85.6","59.7","41.7","29.87","224","8.3","15","0.00","0.00"
"15:24:58","85.7","60.2","42.3","29.87","196","6.1","13","0.00","0.00"
"15:29:57","85.9","59.6","41.2","29.87","212","9.7","18.4","0.00","0.00"
"15:34:56","85.7","60.1","42.1","29.86","191","6.6","18.4","0.00","0.00"
"15:39:59","85.9","60.1","41.9","29.86","193","6.5","14","0.00","0.00"
"15:44:58","85.7","60","42.1","29.86","185","6.5","14","0.00","0.00"
"15:49:56","85.1","59.6","42.2","29.85","193","5.5","12","0.00","0.00"
"15:54:59","84.7","59","41.8","29.85","201","7.3","14","0.00","0.00"
"15:59:58","84.8","59.4","42.4","29.85","204","8","14","0.00","0.00"
"16:04:59","85.5","60.2","42.7","29.84","188","6.3","13","0.00","0.00"
"16:09:58","85.7","59.6","41.4","29.84","183","7.9","14","0.00","0.00"
"16:14:58","85.4","58.4","40.1","29.84","207","8.9","18.4","0.00","0.00"
"16:19:56","85.2","59.1","41.4","29.83","230","7.7","13.8","0.00","0.00"
"16:24:59","84.9","59","41.6","29.83","201","5.6","12","0.00","0.00"
"16:29:58","84.6","58.5","41.2","29.83","192","7.9","17.3","0.00","0.00"
"16:34:56","85.2","59.7","42.3","29.83","209","5.2","16.1","0.00","0.00"
"16:39:59","86","59.4","40.7","29.83","197","8.6","16.1","0.00","0.00"
"16:44:57","86.1","59.1","40.3","29.83","212","8","16.1","0.00","0.00"
"16:49:56","86.1","59.2","40.3","29.82","203","7.7","18.4","0.00","0.00"
"16:54:58","85.9","59.1","40.5","29.82","187","6.3","16.1","0.00","0.00"
"16:59:57","86","59.2","40.5","29.82","178","5.7","12","0.00","0.00"
"17:04:59","85.8","58.4","39.5","29.81","198","8.7","16.1","0.00","0.00"
"17:09:58","85.5","58.4","40","29.81","178","5.9","11.5","0.00","0.00"
"17:14:57","85.2","58.2","40.1","29.81","195","7.4","19.6","0.00","0.00"
"17:19:56","85","58.4","40.6","29.81","199","4","16","0.00","0.00"
"17:24:59","84.7","57.2","39.4","29.81","167","4.9","10.4","0.00","0.00"
"17:29:57","84.8","57.9","40.2","29.81","154","4.6","11.5","0.00","0.00"
"17:34:57","85.5","58.6","40.3","29.79","189","7.3","16.1","0.00","0.00"
"17:39:56","85.7","58.8","40.3","29.79","175","5","11.5","0.00","0.00"
"17:44:58","85.6","59.1","40.8","29.80","179","5","11.5","0.00","0.00"
"17:49:57","85.4","58.5","40.2","29.80","182","6.7","13","0.00","0.00"
"17:54:56","85.2","57.8","39.5","29.80","185","7.9","15","0.00","0.00"
"17:59:59","85.1","57.8","39.7","29.80","175","6.2","15","0.00","0.00"
"18:04:56","84.8","58","40.4","29.80","202","7.8","14","0.00","0.00"
"18:09:59","84.2","57.9","41","29.80","184","6","12.7","0.00","0.00"
"18:14:59","83.8","57.7","41.2","29.81","192","6.3","15","0.00","0.00"
"18:19:57","83.3","56.8","40.5","29.81","193","8.8","18","0.00","0.00"
"18:24:56","83.1","56.8","40.7","29.81","201","6.5","20","0.00","0.00"
"18:29:59","82.8","56.7","41","29.81","200","5.8","13","0.00","0.00"
"18:34:58","82.7","56.8","41.2","29.81","188","5.9","12","0.00","0.00"
"18:39:57","82.9","57","41.3","29.81","193","7.1","15","0.00","0.00"
"18:44:56","83","57.2","41.5","29.81","200","7.6","18","0.00","0.00"
"18:49:59","82.9","57.3","41.8","29.81","190","7.2","18.4","0.00","0.00"
"18:54:58","82.6","57.3","42.1","29.81","194","7.3","13","0.00","0.00"
"18:59:57","82.2","57.4","42.9","29.81","189","6.8","14","0.00","0.00"
"19:04:59","81.9","57.1","42.8","29.81","193","5.4","11.5","0.00","0.00"
"19:09:57","81.8","57","42.9","29.81","159","4","9.2","0.00","0.00"
"19:14:57","81.7","57.1","43.1","29.81","185","4.3","11.5","0.00","0.00"
"19:19:56","81.4","56.9","43.2","29.80","171","5.2","12","0.00","0.00"
"19:24:56","81.4","56.9","43.2","29.80","167","5.2","14","0.00","0.00"
"19:29:59","81.4","56.4","42.4","29.80","180","7.7","15","0.00","0.00"
"19:34:58","81.4","56.3","42.3","29.80","189","6.2","15","0.00","0.00"
"19:39:58","81.3","55.8","41.7","29.80","186","6.4","16","0.00","0.00"
"19:44:57","81.1","55.8","42","29.80","186","4.4","10.4","0.00","0.00"
"19:49:56","80.8","56.1","42.8","29.80","202","5.1","11.5","0.00","0.00"
"19:54:56","80.3","56.1","43.4","29.80","204","6.7","12","0.00","0.00"
"19:59:59","79.9","56.1","44.2","29.80","194","6.3","15","0.00","0.00"
"20:04:58","79.7","56","44.2","29.80","211","7.5","15","0.00","0.00"
"20:09:56","79.5","56.3","45","29.80","209","7.2","14","0.00","0.00"
"20:14:56","79.3","56.1","45","29.80","202","8.9","21","0.00","0.00"
"20:19:59","79.2","56","45","29.80","207","7.8","19.6","0.00","0.00"
"20:24:59","79","56","45.3","29.80","203","7.7","15","0.00","0.00"
"20:29:57","78.8","56.3","46","29.81","216","4.7","10.4","0.00","0.00"
"20:34:59","78.4","55.9","46","29.81","207","6","16.1","0.00","0.00"
"20:39:59","78.3","55.9","46.2","29.81","194","6.1","14","0.00","0.00"
"20:44:57","78.2","56","46.4","29.82","205","8.8","21","0.00","0.00"
"20:49:59","78.4","55.9","46","29.82","219","11.5","20.7","0.00","0.00"
"20:54:58","78.4","55.8","45.8","29.82","216","8.6","19.6","0.00","0.00"
"20:59:57","78.4","55.9","46","29.82","210","9.1","19","0.00","0.00"
"21:04:58","78.3","55.9","46.2","29.81","209","9.1","19.6","0.00","0.00"
"21:09:59","78.2","56.1","46.6","29.81","200","9.6","20","0.00","0.00"
"21:14:58","78.1","56.5","47.5","29.81","199","9.3","21","0.00","0.00"
"21:19:56","77.9","56.6","48","29.81","206","9.6","20.7","0.00","0.00"
"21:24:59","77.7","56.5","48.1","29.81","202","8.5","15","0.00","0.00"
"21:29:57","77.5","56.8","49","29.81","209","6.2","13.8","0.00","0.00"
"21:34:56","77.2","57","49.8","29.81","207","6.7","14","0.00","0.00"
"21:39:58","77.1","57","50","29.81","209","8.4","16.1","0.00","0.00"
"21:44:57","77.2","57.1","50","29.81","204","8.7","19.6","0.00","0.00"
"21:49:59","77.2","57.2","50","29.81","202","4.8","14","0.00","0.00"
"21:54:49","77","57.3","50.7","29.81","190","6.1","12","0.00","0.00"
"21:59:56","76.9","57.4","50.9","29.81","203","7","13","0.00","0.00"
"22:04:57","76.8","57.4","51.1","29.80","193","7.1","15","0.00","0.00"
"22:09:58","76.7","57.4","51.2","29.80","188","5.8","14","0.00","0.00"
"22:14:57","76.7","57.5","51.6","29.80","202","6.2","12","0.00","0.00"
"22:19:56","76.5","57.7","52.2","29.80","185","4.4","12","0.00","0.00"
"22:24:59","76.4","57.6","52.2","29.80","189","5","13","0.00","0.00"
"22:29:57","76.3","57.8","52.8","29.80","193","5.4","12","0.00","0.00"
"22:34:59","76.2","57.8","53","29.80","202","4.8","12","0.00","0.00"
"22:39:58","76","57.9","53.5","29.80","195","4.5","10","0.00","0.00"
"22:44:56","75.9","58","53.8","29.80","195","4.9","11.5","0.00","0.00"
"22:49:58","76","57.8","53.4","29.80","181","4.6","12","0.00","0.00"
"22:54:57","75.9","58","53.9","29.80","166","2.9","9.2","0.00","0.00"
"22:59:56","75.7","57.9","54","29.80","188","3.3","6","0.00","0.00"
"23:04:57","75.5","57.7","54","29.79","184","3.7","11.5","0.00","0.00"
"23:09:59","75.3","57.7","54.3","29.79","182","3.5","9.2","0.00","0.00"
"23:14:58","75.1","57.8","54.9","29.79","185","4.7","12","0.00","0.00"
"23:19:57","75.2","57.8","54.9","29.78","185","5.4","11.5","0.00","0.00"
"23:24:59","75.1","57.8","55","29.78","189","5.8","11.5","0.00","0.00"
"23:29:57","75","57.8","55.2","29.78","180","4.5","11.5","0.00","0.00"
"23:34:59","74.9","57.7","55.3","29.78","191","5.4","10.4","0.00","0.00"
"23:39:58","74.7","57.9","55.9","29.78","189","3.7","9.2","0.00","0.00"
"23:44:56","74.5","57.8","56","29.78","192","4.4","10.4","0.00","0.00"
"23:49:59","74.2","58","57","29.78","204","3.9","8.1","0.00","0.00"
"23:54:57","74.1","57.9","57","29.78","202","5.3","13","0.00","0.00"
"23:59:56","74.1","58","57.2","29.79","203","4.2","12","0.00","0.00"
